Simultaneous Nadir Overpasses (SNOs) Predictions

Prediction of SNOs between METOP-C and LANDSAT-8 Satellite Orbit:

Table of predicted SNOs for the next 14.0 days since TLE Epoch: 10/30/2021
Index Date (METOP-C) Time (METOP-C) Lat,Lon (METOP-C) SZA (METOP-C ) Date (LANDSAT-8) Time (LANDSAT-8) Lat,Lon (LANDSAT-8) SZA (LANDSAT-8 ) Distance(km) Time Diff (sec)
1 11/01/2021 00:18:52 -81.08, 34.51 82.16 11/01/2021 00:19:15 -81.09, 34.60 82.14 1.55 23
2 11/01/2021 01:09:29 81.12,-157.17 97.98 11/01/2021 01:08:40 81.12,-157.29 97.94 2.01 49
3 11/03/2021 19:53:16 -81.08, 100.78 81.30 11/03/2021 19:53:30 -81.08, 100.93 81.28 2.63 14
4 11/03/2021 20:43:53 81.11, -90.90 98.84 11/03/2021 20:42:55 81.11, -90.99 98.80 1.54 58
5 11/06/2021 15:27:38 -81.08, 167.39 80.43 11/06/2021 15:27:43 -81.09, 167.55 80.41 2.88 5
6 11/06/2021 16:18:15 81.12, -24.28 99.72 11/06/2021 16:17:08 81.12, -24.40 99.67 2.02 67
7 11/09/2021 10:11:21 81.06, 65.93 100.30 11/09/2021 10:12:31 81.07, 66.10 100.36 3.10 70
8 11/09/2021 11:02:01 -81.09,-126.03 79.60 11/09/2021 11:01:57 -81.10,-125.90 79.58 2.38 4
9 11/12/2021 05:45:44 81.07, 132.49 101.09 11/12/2021 05:46:45 81.07, 132.54 101.12 0.82 61



Historial Predications of SNOs between METOP-C and LANDSAT-8
